sat.trackr.live / text

‹ back to catalog

STARLINK-35426

NORAD 66441 · 2025-259V

PAYLOAD ACTIVE UNKNOWN

§ Identity

Operator
Country
US
Launch date
2025-11-11
Launch site
AFETR
Launch vehicle
Mass (kg)
RCS (m²)

Purposes: comms

External: N2YO · Heavens-Above · Gunter

§ Orbital elements

Epoch: 2026-05-25T04:47:00.134304Z

Period
94.27 min
Inclination
42.9963°
Eccentricity
0.0000706
Mean motion
15.27592354 rev/d
Perigee alt
482.5 km
Apogee alt
483.5 km
Semi-major
6,861.1 km
B*
5.4322e-4
RAAN
202.1541°
Arg perigee
287.3913°
Mean anomaly
72.6861°
Rev number
3,119

§ Raw data

STARLINK-354261 66441U 25259V   26145.19930711  .00014722  00000+0  54322-3 0  99972 66441  42.9963 202.1541 0000706 287.3913  72.6861 15.27592354 31194

JSON: /api/v1/satellites/66441 · /tle

For live sub-satellite position, see the globe view (requires WebGL).

§ Visibility from observer

Set your observer location to see the next 7 days of passes ≥ 10°. The values pass through the URL so the page stays shareable.

No JS? Fill the form by hand. The geolocation button needs JavaScript.